LUCH (OLYMP-K 1)

Last updated on Thu Nov 21 2024 00:02:42 GMT+0000 (Coordinated Universal Time)

1 40258U 14058A 24325.73622837 -.00000140 00000+0 00000+0 0 9995 2 40258 0.4081 89.0947 0003886 207.0503 11.0409 1.00270876 37188
UTC large
Height (km)
Speed (km/s)
/
Latitude / Longitude
Inclination (degrees)
Orbital Period (minutes)
Azimuth
Elevation
Range (km)
Doppler Factor

Next 0 passes for location: London (51.5072 / 0.1276)

Sorry there are no passes over London.